This demonstration page uses our WeatherBlox Daily Observations layout. Learn more.

Hourly Observations for January 6, 2015

Temp ( °F °C ) Dew Point ( °F °C ) Humidity (%) Winds ( mph kmh ) Pressure ( in mb ) Visibility ( mi km ) Precip ( " mm )
12:15 am 00:15 Clear 20 -6.7 13 -10.8 73 73 N 22 35 30.48 1032 10 16.0934 0 0
12:35 am 00:35 Clear 19 -7.4 11 -11.6 72 72 N 32 52 30.48 1032 7 11.26538 0 0
12:55 am 00:55 Clear 17 -8.3 9 -12.7 71 71 N 16 26 30.5 1033 10 16.0934 0 0
1:15 am 01:15 Clear 16 -9 8 -13.3 71 71 N 21 33 30.5 1033 10 16.0934 0 0
1:35 am 01:35 Clear 15 -9.6 6 -14.2 69 69 N 7 11 30.59 1036 10 16.0934 0 0
1:55 am 01:55 Clear 14 -10.2 6 -14.5 71 71 N 13 20 30.59 1036 10 16.0934 0 0
2:15 am 02:15 Clear 13 -10.7 5 -14.9 72 72 N 12 19 30.62 1037 10 16.0934 0 0
2:35 am 02:35 Clear 12 -11.3 4 -15.5 71 71 N 7 11 30.62 1037 10 16.0934 0 0
2:55 am 02:55 Clear 11 -11.8 4 -15.6 74 74 N 3 6 30.68 1039 10 16.0934 0 0
3:15 am 03:15 Clear 11 -11.8 4 -15.6 74 74 NNW 6 9 30.68 1039 10 16.0934 0 0
3:35 am 03:35 Clear 10 -12 3 -16.2 71 71 N 12 19 30.68 1039 10 16.0934 0 0
3:55 am 03:55 Clear 10 -12.5 2 -16.5 72 72 N 8 13 30.68 1039 10 16.0934 0 0
4:15 am 04:15 Clear 10 -12.5 2 -16.5 72 72 N 8 13 30.68 1039 10 16.0934 0 0
4:35 am 04:35 Clear 9 -12.6 2 -16.4 74 74 N 7 11 30.68 1039 10 16.0934 0 0
4:55 am 04:55 Clear 9 -12.6 2 -16.5 73 73 N 7 11 30.68 1039 10 16.0934 0 0
5:15 am 05:15 Clear 9 -12.8 2 -16.7 73 73 NNW 7 11 30.68 1039 10 16.0934 0 0
5:35 am 05:35 Clear 8 -13.1 2 -16.7 75 75 NNW 8 13 30.68 1039 10 16.0934 0 0
5:55 am 05:55 Clear 8 -13.2 2 -16.7 75 75 NNW 6 9 30.68 1039 10 16.0934 0 0
6:15 am 06:15 Clear 8 -13.1 2 -16.8 74 74 NW 5 7 30.71 1040 10 16.0934 0 0
6:35 am 06:35 Clear 8 -13.3 2 -16.9 75 75 N 7 11 30.71 1040 10 16.0934 0 0
6:55 am 06:55 Clear 8 -13.2 2 -16.8 75 75 NNW 3 6 30.71 1040 10 16.0934 0 0
7:15 am 07:15 Clear 8 -13.6 1 -17 76 76 Calm 30.74 1041 10 16.0934 0 0
7:35 am 07:35 Clear 7 -13.8 2 -16.8 78 78 WNW 3 6 30.74 1041 10 16.0934 0 0
7:55 am 07:55 Partly Cloudy 8 -13.4 2 -16.8 76 76 W 5 7 30.71 1040 10 16.0934 0 0
8:15 am 08:15 Partly Cloudy 9 -13 2 -16.5 75 75 W 3 6 30.71 1040 10 16.0934 0 0
8:35 am 08:35 Partly Cloudy 9 -12.6 3 -16.2 75 75 NW 3 6 30.71 1040 10 16.0934 0 0
8:55 am 08:55 Sunny 10 -12.1 3 -16 73 73 Calm 30.71 1040 10 16.0934 0 0
9:15 am 09:15 Sunny 11 -11.5 4 -15.8 71 71 Calm 30.74 1041 10 16.0934 0 0
9:35 am 09:35 Sunny 12 -10.9 4 -15.5 69 69 Calm 30.71 1040 10 16.0934 0 0
9:55 am 09:55 Mostly Cloudy 14 -10.1 5 -15.2 67 67 Calm 30.68 1039 10 16.0934 0 0
10:15 am 10:15 Cloudy 14 -9.8 6 -14.6 68 68 W 3 6 30.68 1039 10 16.0934 0 0
10:35 am 10:35 Mostly Cloudy 15 -9.2 6 -14.5 66 66 W 3 6 30.68 1039 10 16.0934 0 0
10:55 am 10:55 Sunny 16 -8.7 6 -14.3 64 64 WNW 3 6 30.68 1039 10 16.0934 0 0
11:15 am 11:15 Sunny 18 -8 7 -14.1 62 62 Calm 30.62 1037 10 16.0934 0 0
11:35 am 11:35 Sunny 19 -7.4 7 -13.7 61 61 Calm 30.62 1037 10 16.0934 0 0
11:55 am 11:55 Sunny 20 -6.9 8 -13.5 60 60 Calm 30.62 1037 10 16.0934 0 0
12:15 pm 12:15 Sunny 20 -6.4 9 -12.7 61 61 SW 3 6 30.59 1036 10 16.0934 0 0
12:35 pm 12:35 Sunny 21 -6.1 9 -12.7 60 60 SSW 6 9 30.59 1036 10 16.0934 0 0
12:55 pm 12:55 Sunny 22 -5.6 11 -11.9 62 62 SSW 9 15 30.5 1033 10 16.0934 0 0
1:15 pm 13:15 Sunny 22 -5.6 10 -12.1 61 61 SSW 6 9 30.53 1034 10 16.0934 0 0
1:35 pm 13:35 Sunny 22 -5.5 10 -12.3 59 59 SW 3 6 30.53 1034 10 16.0934 0 0
1:55 pm 13:55 Sunny 22 -5.4 10 -12 60 60 S 7 11 30.5 1033 10 16.0934 0 0
2:15 pm 14:15 Sunny 22 -5.3 11 -11.7 61 61 SSW 3 6 30.5 1033 10 16.0934 0 0
2:35 pm 14:35 Sunny 23 -5.2 12 -11.2 63 63 SSW 6 9 30.5 1033 10 16.0934 0 0
2:55 pm 14:55 Sunny 23 -4.8 11 -11.5 60 60 S 6 9 30.48 1032 10 16.0934 0 0
3:15 pm 15:15 Partly Cloudy 23 -5 12 -11.3 62 62 SSW 10 17 30.48 1032 10 16.0934 0 0
3:35 pm 15:35 Mostly Cloudy 24 -4.2 12 -11 60 60 SW 6 9 30.48 1032 10 16.0934 0 0
3:55 pm 15:55 Cloudy 23 -4.8 12 -11 62 62 S 3 6 30.48 1032 10 16.0934 0 0
4:15 pm 16:15 Cloudy 24 -4.3 13 -10.8 61 61 SSW 3 6 30.5 1033 10 16.0934 0 0
4:35 pm 16:35 Mostly Cloudy 24 -4.6 12 -10.9 62 62 S 5 7 30.5 1033 10 16.0934 0 0
4:55 pm 16:55 Cloudy 24 -4.6 13 -10.6 63 63 Calm 30.5 1033 10 16.0934 0 0
5:15 pm 17:15 Cloudy 24 -4.6 13 -10.8 62 62 Calm 30.5 1033 10 16.0934 0 0
5:35 pm 17:35 Cloudy 24 -4.6 13 -10.3 65 65 NNE 6 9 30.53 1034 10 16.0934 0 0
5:55 pm 17:55 Cloudy 24 -4.7 15 -9.7 68 68 NNE 8 13 30.53 1034 10 16.0934 0 0
6:15 pm 18:15 Cloudy 23 -5 14 -9.8 69 69 NNE 8 13 30.56 1035 10 16.0934 0 0
6:35 pm 18:35 Cloudy 23 -5.1 14 -10 69 69 ENE 3 6 30.53 1034 10 16.0934 0 0
6:55 pm 18:55 Cloudy 23 -5 15 -9.7 70 70 NE 5 7 30.56 1035 10 16.0934 0 0
7:15 pm 19:15 Cloudy 23 -5 15 -9.7 70 70 NE 10 17 30.59 1036 10 16.0934 0 0
7:35 pm 19:35 Cloudy 23 -5 15 -9.5 71 71 NNE 10 17 30.59 1036 10 16.0934 0 0
7:55 pm 19:55 Cloudy 24 -4.7 15 -9.2 71 71 NNE 18 30 30.62 1037 10 16.0934 0 0
8:15 pm 20:15 Cloudy 22 -5.4 14 -10.1 70 70 NNE 21 33 30.62 1037 10 16.0934 0 0
8:35 pm 20:35 Cloudy 21 -6.2 13 -10.7 71 71 NNE 23 37 30.68 1039 10 16.0934 0 0
8:55 pm 20:55 Cloudy 19 -7 11 -11.5 71 71 NNE 24 39 30.68 1039 10 16.0934 0 0
9:15 pm 21:15 Cloudy 18 -7.6 11 -11.6 73 73 NNE 21 33 30.74 1041 10 16.0934 0 0
9:35 pm 21:35 Cloudy 17 -8.3 11 -11.9 76 76 N 20 31 30.77 1042 10 16.0934 0 0
9:55 pm 21:55 Windy with Snow Likely 16 -9 10 -12.2 78 78 N 29 46 30.77 1042 7 11.26538 0 0
10:15 pm 22:15 Cloudy 15 -9.7 7 -13.9 72 72 NNE 24 39 30.77 1042 10 16.0934 0 0
10:35 pm 22:35 Cloudy 14 -9.8 7 -13.7 73 73 NNE 20 31 30.83 1044 10 16.0934 0 0
10:55 pm 22:55 Cloudy 14 -9.8 7 -13.7 73 73 N 16 26 30.86 1045 10 16.0934 0 0
11:15 pm 23:15 Cloudy 14 -9.8 6 -14.2 71 71 N 20 31 30.86 1045 10 16.0934 0 0
11:35 pm 23:35 Cloudy 14 -9.8 6 -14.4 69 69 N 23 37 30.89 1046 10 16.0934 0 0
11:55 pm 23:55 Cloudy 14 -9.8 6 -14.3 70 70 N 22 35 30.89 1046 10 16.0934 0 0

Powered by AerisWeather